User: anonymous   Login
Location: Chandolas
(44.4033°N, 4.2533°E)
Time: 15:00:35
(UTC+00:00)
Language:

ATLAS 2AS CENTAUR R/B - Orbit

View from above orbital plane
View from above orbital plane
View from above satellite
View from above satellite

Ground track
Ground track

The orbit data is extracted from the following two-line orbital elements,

1 28096U 03054B   20006.76470387 0.00000000  00000-0  00000-0 0    00
2 28096  63.6712 218.2634 0238752 234.5106 125.4894 13.40855870    00
Epoch (UTC): 06 January 2020 18:21:10
Eccentricity: 0.0238752
inclination: 63.6712°
perigee height: 927 km
apogee height: 1285 km
right ascension of ascending node: 218.2634°
argument of perigee: 234.5106°
revolutions per day: 13.40855870
mean anomaly at epoch: 125.4894°
orbit number at epoch: 0

The dashed part of the orbit path shows where the satellite is in the earth's shadow,  

DLR